ECMWFFLT1_700_spd_021.txt.gz
Wind_Speed
28 29 30 31 31 32 32 32 31 29 26 24 23 19 17 19 19 19 18 16 15 13 12 11 11 11 11 11 11 13 15 17 19 20 22 24 26 27 27 27 26 26 25 24 23 22 21 20 20 20 21 21 20 20 19 17 16 15 15 15 16 16 17
24 26 29 31 32 33 32 32 31 29 26 24 23 22 20 20 20 20 19 18 17 16 14 13 12 13 13 13 13 14 15 17 19 20 23 25 27 28 28 28 27 26 25 23 22 21 20 20 20 21 21 22 21 20 19 17 15 15 15 15 16 17 18
22 25 28 30 32 32 32 31 30 28 25 23 22 23 23 21 21 22 21 20 19 18 17 16 15 15 15 15 15 15 16 18 19 20 23 25 28 29 30 29 28 27 25 24 22 20 20 20 21 21 21 21 21 20 20 18 17 16 16 16 16 17 18
20 25 28 29 30 31 31 31 30 27 24 21 21 22 23 23 22 22 24 24 22 21 19 18 17 17 18 18 18 18 18 19 19 21 23 26 29 30 31 31 29 27 25 24 22 21 20 20 20 21 21 20 20 20 19 19 18 18 17 16 16 17 17
15 21 27 29 31 31 31 32 33 31 27 24 23 22 23 24 24 24 25 27 26 23 22 22 20 20 20 21 20 20 20 20 20 21 24 27 29 31 32 32 30 28 25 24 22 21 21 20 20 20 20 20 20 19 19 19 19 19 18 17 16 17 18
12 17 23 27 30 31 32 33 33 32 30 28 26 24 23 25 27 27 27 29 29 27 25 24 23 22 23 23 22 22 22 21 20 21 24 27 30 32 33 32 30 28 26 24 22 21 20 20 19 20 20 20 19 19 19 19 19 19 18 17 17 18 18
11 15 19 23 25 28 30 30 30 29 28 29 28 26 25 26 29 29 28 30 31 30 28 26 25 25 25 25 24 23 22 21 21 23 25 27 30 32 33 32 30 28 26 24 22 21 20 19 18 18 19 19 19 19 19 20 19 19 18 18 18 19 20
10 13 17 21 21 22 23 25 26 26 27 27 25 23 23 26 28 30 29 30 32 33 31 28 28 27 27 27 26 25 24 23 22 25 27 27 29 32 33 32 31 28 26 24 22 21 20 19 18 18 18 19 19 18 19 20 20 19 18 19 19 20 21
9 11 14 17 19 20 21 22 23 24 24 22 19 19 21 25 28 29 29 30 33 35 34 31 30 29 29 30 28 27 26 23 23 26 27 27 29 32 33 31 29 28 27 26 25 23 21 20 19 19 19 19 19 17 17 18 19 19 18 19 20 21 22
9 10 11 14 17 19 20 21 22 21 20 17 16 18 21 24 27 28 29 29 31 35 36 35 32 31 32 32 31 29 26 23 24 27 27 27 29 32 32 30 29 30 30 29 27 24 23 22 21 21 20 20 19 19 17 17 18 19 19 20 20 21 22
9 9 12 13 15 17 19 20 19 18 16 14 15 18 21 23 24 26 27 28 30 33 35 36 34 33 34 35 33 29 25 24 27 27 26 27 30 31 31 31 31 32 30 28 26 23 22 22 22 22 22 22 21 20 19 18 18 19 19 20 21 21 22
9 8 10 11 14 18 19 20 18 16 14 14 15 17 20 22 22 23 26 27 28 30 32 34 34 33 36 37 34 30 26 26 28 25 25 28 30 30 31 31 30 28 25 22 21 20 19 20 20 21 22 22 22 21 20 20 20 20 20 20 21 22 22
11 10 9 10 13 17 20 21 20 17 15 13 14 16 18 20 20 22 25 27 27 26 28 31 32 34 36 37 35 31 28 28 27 24 25 28 29 29 29 29 27 24 20 19 18 18 18 19 20 20 21 21 21 22 22 22 22 22 22 22 22 22 23
12 13 13 13 13 15 19 22 23 21 19 16 15 16 17 18 18 20 24 27 26 25 27 30 32 34 36 36 35 31 27 27 24 23 26 28 28 28 27 27 25 21 18 17 17 18 18 18 18 19 19 20 22 23 23 23 23 23 23 23 23 22 23
12 14 16 18 19 19 19 20 21 23 23 21 20 20 20 19 19 21 24 27 27 27 29 30 31 33 33 33 31 27 26 26 23 23 26 26 26 27 27 26 23 19 18 17 17 18 18 18 18 18 19 20 22 23 23 23 23 23 23 24 24 23 23
14 17 20 21 22 23 22 20 19 22 24 25 24 24 24 23 22 23 25 26 27 28 29 29 31 32 31 31 29 26 27 25 23 24 26 25 26 27 26 25 22 19 18 18 19 20 20 19 19 19 19 20 22 23 23 22 22 22 23 24 24 24 24
17 20 22 21 21 22 24 22 20 21 24 26 26 27 26 24 23 24 25 25 24 26 28 30 32 33 32 32 29 27 25 22 23 25 25 25 26 26 25 24 22 20 20 21 23 23 23 22 21 20 20 20 21 21 20 21 21 21 21 22 23 23 23
20 20 21 21 21 21 24 25 24 22 23 25 26 27 27 24 23 23 24 24 25 27 31 34 35 34 34 34 30 24 20 20 23 24 25 26 26 25 25 23 22 22 23 25 26 26 25 24 24 23 21 21 21 20 19 20 20 20 20 20 21 22 23
20 20 21 22 23 23 26 27 24 22 23 24 24 24 24 22 21 21 23 26 29 32 34 36 35 31 29 31 27 20 18 21 23 23 24 25 25 24 24 23 23 24 25 26 27 27 26 26 25 25 23 22 21 20 20 20 20 20 21 20 21 22 23
21 22 22 23 25 27 28 27 24 23 23 22 21 21 22 20 19 20 24 29 32 32 29 29 28 25 22 22 21 19 20 22 22 23 24 23 24 24 24 24 24 24 24 26 27 27 27 26 26 26 25 24 22 22 21 21 20 20 21 21 22 23 24
22 22 21 22 24 27 28 27 27 25 21 19 19 20 20 18 18 20 24 27 29 27 23 20 21 19 16 16 18 19 20 21 22 22 22 23 24 24 24 24 24 24 25 25 26 26 26 26 26 26 26 25 24 23 22 21 21 21 21 22 22 22 24
18 18 18 17 18 22 24 24 24 22 18 18 20 20 18 16 16 20 22 23 24 22 19 17 17 14 13 15 17 19 19 20 21 22 23 24 25 25 25 26 26 26 26 26 26 26 26 26 26 27 27 27 26 25 24 22 21 21 22 22 22 22 24
17 17 16 15 13 14 17 17 16 17 17 18 19 18 15 13 16 19 21 22 21 18 16 16 14 11 11 13 15 17 18 20 22 23 25 25 26 27 27 27 27 28 28 27 27 26 25 26 27 28 29 28 28 27 25 23 22 22 22 23 23 23 24
17 16 17 17 14 12 14 14 13 14 16 17 17 15 13 13 15 18 18 19 18 16 15 13 9 9 11 13 14 16 18 21 23 25 26 26 28 29 29 29 29 29 29 28 27 27 26 27 28 29 30 30 29 29 27 26 24 23 23 23 24 24 24
17 17 19 21 17 13 13 14 14 15 16 16 15 13 11 12 15 16 15 16 15 14 12 9 8 10 12 13 15 17 20 22 25 26 28 29 30 31 31 31 31 31 30 28 27 27 28 28 29 30 30 31 31 30 28 27 25 23 22 23 23 24 24
18 20 22 21 18 14 14 14 15 17 18 17 15 12 10 12 15 15 14 14 14 11 8 6 8 11 13 15 17 19 22 25 28 30 32 34 35 35 35 34 33 31 28 26 26 27 28 29 30 30 30 30 30 28 27 27 25 22 21 22 23 24 24
19 21 22 22 21 18 16 15 17 19 19 17 14 12 11 13 15 15 15 14 11 9 7 8 10 13 15 17 19 22 24 26 30 33 35 38 38 37 35 35 34 31 27 24 23 25 26 28 29 28 28 28 26 24 25 25 23 21 20 21 23 24 23
19 20 23 24 23 21 19 18 19 21 20 17 15 13 13 15 17 17 16 14 11 10 10 12 13 14 16 18 20 23 25 28 31 33 36 39 40 37 35 35 35 34 31 28 27 27 24 22 26 26 25 25 23 21 21 20 19 19 20 20 22 23 21
21 23 25 26 25 24 24 24 23 23 21 17 16 15 15 17 18 17 16 15 13 11 10 10 12 14 16 19 21 24 27 29 31 33 35 38 39 39 39 38 37 37 37 36 39 36 25 17 21 25 24 23 21 21 21 19 18 19 19 20 21 21 21
23 24 26 27 26 25 26 29 29 25 23 21 18 17 17 17 17 16 15 14 11 8 7 8 10 13 15 18 21 24 27 29 32 35 37 38 39 39 39 37 35 35 34 34 39 40 28 18 18 21 23 22 21 21 24 23 20 19 19 19 20 20 20
23 24 25 24 24 25 27 30 34 29 22 26 22 18 18 17 17 16 15 13 10 9 9 9 10 12 14 17 20 22 26 29 31 34 36 37 38 37 37 37 35 32 30 30 33 33 27 23 21 19 19 21 22 23 25 25 22 20 18 17 18 20 21
25 26 26 26 27 29 30 29 31 32 21 27 28 23 20 19 18 18 16 14 13 11 10 10 11 13 14 17 20 24 27 30 32 33 34 34 35 36 37 37 35 31 30 31 31 27 24 25 26 20 16 18 22 25 26 25 22 19 16 15 18 21 24
27 28 27 28 28 29 30 28 29 30 24 26 28 23 21 21 20 20 19 16 15 13 12 12 14 18 20 21 24 27 30 32 33 33 32 32 33 34 35 35 34 33 31 30 29 27 26 27 27 21 17 19 23 26 26 25 22 18 15 16 19 23 26
26 27 26 27 29 29 31 32 32 32 27 26 27 22 20 22 22 21 18 15 14 13 13 15 21 26 27 26 27 29 31 31 32 32 32 33 33 33 35 35 34 33 31 28 27 27 27 25 22 20 20 22 24 25 25 24 22 20 18 19 22 25 27
23 25 26 28 31 32 33 34 34 33 29 23 26 23 22 24 22 20 19 18 18 17 15 20 26 27 26 26 28 30 30 30 31 32 33 34 34 34 35 35 34 32 30 27 24 23 23 23 21 21 23 23 23 24 25 23 22 22 23 23 25 27 28
21 24 26 28 32 33 32 31 31 29 27 24 23 21 22 25 24 22 22 22 22 22 22 25 26 24 24 27 30 31 31 31 32 33 33 34 35 35 35 34 33 32 29 26 24 23 23 23 22 22 23 24 24 24 24 22 22 24 25 26 28 28 28
22 25 26 27 29 29 26 27 28 27 26 25 24 22 23 25 24 24 24 22 23 25 24 23 23 23 25 28 30 31 32 32 33 34 35 35 35 35 35 34 33 31 29 27 27 27 26 24 23 23 24 26 26 25 24 24 24 25 26 28 30 31 29
23 24 24 24 24 25 24 25 28 28 27 25 25 25 24 23 23 26 27 24 23 25 24 22 23 25 27 28 30 32 32 32 34 35 36 36 36 35 34 34 33 31 30 28 28 28 27 26 25 26 27 27 26 24 24 25 26 27 27 29 30 31 30

ECMWFFLT1_700_spd_024.txt.gz
Wind_Speed
19 18 17 17 17 17 19 19 17 16 16 15 15 16 18 19 19 18 18 18 18 19 18 16 14 12 11 10 9 9 9 11 13 14 16 17 18 20 22 25 27 29 29 27 24 22 20 19 18 17 16 16 16 16 16 16 16 16 15 15 15 15 15
23 19 18 15 14 16 18 19 19 18 16 14 13 13 15 18 20 20 19 19 20 20 19 18 16 15 13 12 12 12 12 12 13 15 16 17 18 20 22 25 27 28 29 27 24 22 20 19 18 17 16 16 15 15 16 16 15 15 15 15 15 15 15
26 22 19 15 14 16 18 20 20 18 17 15 13 12 12 15 18 20 20 19 21 22 21 21 19 17 16 15 15 15 14 14 15 16 17 18 18 20 23 25 26 28 29 28 25 22 20 19 18 17 16 15 15 15 15 15 15 15 15 15 15 15 14
25 21 19 17 16 17 18 20 20 19 18 15 13 11 10 11 14 18 21 21 22 24 23 22 20 19 18 17 17 18 17 17 17 17 18 18 19 20 23 25 26 28 29 29 25 22 19 18 17 16 15 14 14 15 14 14 14 15 14 14 15 15 14
23 22 22 22 21 21 21 22 22 21 20 18 16 14 13 13 14 17 20 21 23 24 25 24 23 21 21 21 20 20 20 19 19 18 19 20 20 22 24 26 27 28 30 28 25 22 21 19 16 15 15 14 14 14 14 14 14 14 14 14 14 14 14
25 25 24 23 22 21 21 22 23 23 22 21 19 18 17 18 19 18 19 21 23 25 27 27 26 26 25 24 23 23 22 21 21 21 22 22 22 23 26 28 27 28 29 28 25 23 21 18 15 14 14 14 14 14 14 14 14 14 14 13 13 13 14
26 24 22 21 19 19 20 21 23 23 22 22 22 22 21 20 21 21 21 21 23 26 28 29 29 29 28 26 26 26 24 24 24 24 24 23 23 24 27 29 28 28 29 27 24 22 19 16 14 13 13 13 14 14 14 14 15 16 16 14 14 14 15
21 17 16 17 16 16 18 20 21 21 22 23 24 24 22 20 21 22 22 23 24 26 28 29 30 31 30 29 29 28 27 26 26 26 25 24 24 25 28 29 28 28 28 26 23 20 17 15 13 12 12 12 12 13 14 14 16 17 17 16 16 16 16
17 11 9 10 10 13 17 19 20 20 21 22 22 22 21 21 21 20 21 22 25 27 28 29 30 32 33 32 31 31 30 29 28 27 26 25 24 26 29 29 28 28 27 25 21 19 17 15 13 11 11 11 11 12 13 14 15 16 17 17 17 17 18
15 10 8 8 9 13 17 19 21 22 22 21 20 20 21 21 21 20 20 21 23 25 27 28 29 31 33 34 33 33 32 31 30 29 27 26 26 29 31 28 27 28 26 23 20 18 17 15 12 11 10 10 11 12 13 14 15 17 17 18 19 19 19
15 10 7 6 8 13 17 20 22 22 22 20 18 18 18 18 19 19 20 20 21 23 25 27 28 30 32 34 35 35 34 33 32 31 29 27 27 30 29 26 27 27 24 22 20 18 17 15 14 14 13 13 13 13 14 15 17 18 18 19 19 19 19
16 13 9 5 6 8 12 16 18 19 20 19 17 17 17 17 18 19 20 20 20 21 23 25 26 28 31 33 35 36 35 35 34 33 30 27 27 28 26 25 27 26 23 22 20 18 16 16 17 17 17 17 17 16 17 17 18 18 18 18 18 19 19
17 16 12 7 5 4 6 10 12 15 18 19 19 18 17 17 18 20 20 20 19 20 22 23 25 28 30 31 33 35 36 36 35 34 31 27 26 26 25 25 26 25 23 21 18 16 16 17 18 18 18 19 19 19 19 20 20 19 18 18 18 19 19
18 18 15 10 7 6 8 9 11 13 16 19 21 21 20 19 19 20 19 19 20 21 21 23 25 27 29 31 32 34 35 36 35 33 30 27 26 25 24 25 25 23 20 18 15 15 16 17 17 17 18 19 20 21 21 21 21 20 19 18 18 19 19
20 21 19 14 9 9 10 11 12 13 15 17 20 22 23 23 22 22 21 20 21 22 22 23 25 27 29 31 32 33 34 35 35 33 29 26 26 25 24 24 23 20 18 15 14 15 16 17 18 18 18 19 20 21 21 21 20 19 19 18 18 19 19
21 22 21 17 12 11 11 13 14 15 16 17 19 21 23 25 26 26 24 24 23 23 23 24 25 26 28 30 32 33 34 35 35 31 27 25 25 24 24 23 21 19 17 16 16 17 18 19 19 18 18 18 19 20 21 20 20 19 19 19 19 19 19
20 19 19 17 15 13 13 15 17 18 19 19 19 20 21 24 26 28 28 28 27 25 24 24 24 24 25 27 29 31 32 32 30 27 24 23 23 23 23 21 18 17 16 17 18 19 19 19 20 19 19 18 19 20 20 21 21 21 20 20 20 20 20
17 17 18 17 16 15 16 18 19 20 20 21 21 22 22 22 24 27 29 30 30 28 26 24 22 22 23 24 25 27 27 24 22 22 21 22 23 23 21 18 16 15 16 18 19 19 18 19 21 21 20 20 20 20 20 21 22 23 22 22 21 21 21
17 17 17 16 16 18 19 21 21 21 21 22 23 24 24 23 24 25 27 29 30 29 26 23 20 20 20 20 20 21 20 17 18 19 20 21 22 21 18 16 15 15 16 18 19 19 20 20 22 23 22 22 23 23 22 22 23 24 24 22 21 22 23
18 16 15 15 18 21 21 21 22 22 22 23 25 25 25 25 24 23 24 27 28 28 26 23 20 19 19 18 17 18 17 16 17 17 18 20 20 18 16 16 16 17 18 19 20 21 22 23 23 24 24 24 25 26 25 24 24 25 23 21 20 22 23
16 15 16 18 20 22 21 20 21 23 24 26 26 27 27 25 23 22 23 25 27 28 26 22 18 18 18 17 18 19 17 15 16 17 18 19 18 16 16 16 18 19 19 21 23 24 25 24 24 24 25 26 26 26 26 25 26 25 23 20 20 22 23
16 16 17 18 19 19 17 16 17 19 23 26 27 28 27 24 22 22 23 25 27 27 26 22 18 18 19 18 18 17 15 14 16 18 18 17 16 15 15 17 19 20 21 22 24 26 26 25 26 28 28 26 26 25 25 26 26 24 22 21 21 23 23
17 17 17 17 17 17 16 16 17 17 19 21 24 25 25 23 23 24 25 27 27 26 24 20 17 19 21 19 16 13 12 14 17 17 16 15 15 14 16 18 19 20 22 24 25 27 28 28 28 29 28 26 26 26 24 25 26 24 21 22 23 24 24
16 16 17 16 15 16 18 18 19 19 18 18 19 21 23 24 25 27 29 29 28 25 21 17 15 17 18 16 14 12 11 14 17 17 15 14 14 15 17 19 20 22 24 26 27 28 30 31 32 33 31 25 23 24 24 25 26 24 22 23 24 25 24
16 15 15 15 16 17 18 17 17 18 19 20 19 19 22 25 28 30 31 29 25 21 18 15 14 14 14 14 14 12 13 16 17 16 15 14 14 16 18 19 21 23 25 26 26 27 28 29 31 33 33 27 21 20 22 24 25 24 23 23 24 23 22
16 15 14 15 16 17 17 17 18 19 20 19 18 19 23 28 32 33 31 25 21 18 17 14 13 14 16 15 14 14 15 16 15 14 14 14 15 17 19 21 22 23 25 26 27 27 27 27 27 27 27 27 25 23 22 22 24 24 22 22 22 22 22
15 15 15 15 16 17 19 21 22 22 22 20 20 22 26 31 35 34 27 22 20 17 14 14 18 19 18 16 15 14 13 13 12 13 14 15 17 19 21 23 24 24 25 27 27 27 27 27 26 24 24 27 28 28 25 23 22 22 22 22 23 23 24
15 14 14 15 17 19 21 23 24 24 23 22 22 25 27 31 34 32 29 26 19 15 16 19 22 20 17 15 12 10 10 10 11 13 15 17 19 22 24 25 25 23 26 28 27 26 26 25 25 24 25 27 28 28 27 25 23 22 23 23 24 26 26
16 16 16 17 19 21 24 25 25 24 23 21 22 26 29 31 33 31 28 24 18 19 20 21 20 17 15 12 9 7 8 10 12 14 17 19 21 23 24 25 25 23 25 28 28 28 27 25 25 25 26 26 25 24 25 25 25 25 25 24 24 26 27
19 21 21 22 22 24 25 26 25 24 24 23 24 27 29 29 31 28 21 22 23 21 20 19 17 16 13 9 6 7 9 11 13 16 19 21 22 23 24 25 26 25 26 28 29 29 28 25 25 27 25 23 21 20 22 24 25 27 27 25 24 26 26
23 25 25 24 24 24 23 23 23 23 24 25 26 27 27 27 27 23 19 23 22 20 20 19 19 17 11 7 7 9 11 12 15 18 20 22 23 24 26 27 28 28 28 29 29 29 28 26 25 26 25 23 22 21 23 25 26 27 27 25 24 26 27
27 26 25 25 25 23 21 21 22 22 23 24 25 26 27 26 25 22 23 26 23 19 23 23 18 13 8 8 10 11 13 14 18 21 22 23 25 26 27 27 28 28 28 28 28 28 26 25 24 24 24 24 22 21 22 24 25 26 25 23 24 26 27
26 25 26 26 25 23 21 21 21 21 22 23 25 27 27 24 23 24 25 25 21 18 25 21 13 12 12 12 12 13 15 19 24 27 25 25 26 27 27 27 27 28 27 27 26 26 25 23 22 22 22 22 21 22 23 24 24 24 24 22 23 25 27
25 26 27 27 25 22 20 19 19 20 21 24 26 26 24 22 23 25 25 22 17 18 22 19 17 18 15 11 12 16 19 24 28 29 27 26 27 28 28 28 27 27 27 26 26 25 24 23 22 22 22 22 22 24 25 25 25 25 24 23 24 26 28
26 27 27 26 23 20 18 17 19 20 21 22 23 22 21 21 22 24 25 21 17 20 22 22 24 24 18 15 18 20 22 26 28 28 26 27 28 30 30 29 29 29 28 28 27 26 25 24 22 22 23 24 24 24 24 25 24 24 25 25 26 26 27
26 27 27 26 22 18 18 18 20 20 19 18 19 20 19 20 22 25 26 24 23 25 26 24 25 25 22 23 24 23 24 26 26 27 28 28 29 31 31 31 31 30 30 30 29 27 26 24 23 23 24 25 25 24 24 24 24 25 26 27 26 26 26
25 25 24 23 20 18 18 19 19 20 19 18 19 20 20 21 24 26 28 28 29 28 26 23 23 24 25 25 25 24 25 26 26 28 29 29 29 31 33 33 32 32 32 31 30 29 27 25 25 24 25 25 25 25 24 25 25 26 26 27 27 26 26
23 22 20 19 19 18 18 19 19 19 19 20 21 22 22 23 26 27 29 29 27 24 22 21 22 23 24 25 25 25 26 26 27 29 30 30 30 32 34 34 34 33 33 32 31 30 28 27 26 26 26 26 26 25 25 25 25 25 26 26 27 27 27

ECMWFFLT1_700_spd_030.txt.gz
Wind_Speed
22 19 19 21 23 25 26 26 25 23 22 22 21 20 21 21 20 19 18 16 15 15 16 16 17 17 17 17 17 16 16 15 14 13 12 12 11 10 10 10 11 11 12 14 16 19 21 21 21 23 22 21 20 18 17 15 14 14 14 13 13 13 13
26 22 20 20 21 24 25 25 26 26 25 24 22 21 21 21 21 21 19 17 16 16 17 17 17 18 18 19 19 18 18 17 16 16 15 14 14 14 13 13 12 12 13 14 16 19 21 20 21 22 22 20 19 17 16 15 14 14 14 13 13 13 14
26 24 22 20 21 22 23 24 26 27 27 26 25 23 21 19 19 19 18 17 17 17 18 19 19 19 19 20 21 20 20 19 18 17 16 16 17 17 16 15 14 14 14 15 16 19 20 20 21 22 21 20 18 17 15 14 13 14 14 13 14 14 14
26 25 23 21 20 20 21 23 24 24 26 26 25 24 21 18 16 16 16 15 16 17 18 18 19 20 21 22 22 22 22 22 21 19 19 19 19 19 18 17 16 16 16 16 17 18 20 20 21 22 21 19 18 16 15 14 13 13 13 13 13 14 14
28 26 24 24 23 22 23 24 23 23 23 24 24 23 22 20 18 17 16 15 15 15 16 18 19 20 22 23 24 24 25 24 23 22 22 22 22 21 20 18 17 18 18 18 18 18 20 21 21 22 22 20 18 17 15 14 14 13 13 13 13 13 14
29 28 27 27 25 24 24 24 23 23 21 21 21 20 19 19 19 18 17 17 16 16 17 18 20 21 23 24 26 27 27 27 26 25 25 25 25 23 22 20 19 20 19 19 19 19 20 21 21 22 22 20 18 17 15 15 15 15 14 14 14 14 14
30 28 28 28 26 24 24 22 22 22 19 18 19 19 20 19 18 18 18 19 20 20 20 19 20 22 23 25 27 29 30 30 29 29 28 28 26 25 23 21 21 21 21 20 20 21 21 21 22 22 21 19 18 17 16 15 16 16 16 15 15 15 15
26 27 28 28 26 24 22 21 21 20 19 19 20 21 22 21 20 20 21 21 22 23 24 23 22 23 24 26 27 28 31 33 33 32 31 29 28 26 24 23 23 23 22 22 22 21 21 21 22 22 20 18 17 16 15 15 15 16 16 16 16 16 16
23 27 28 26 24 22 21 21 20 19 20 20 20 20 21 21 22 22 22 22 23 25 26 26 26 26 26 27 28 28 30 34 36 34 33 32 30 28 26 25 24 25 24 23 22 20 20 23 23 22 20 17 16 15 14 14 14 15 16 15 15 15 15
21 26 27 25 23 22 22 22 21 21 22 21 21 22 23 23 24 24 23 24 24 25 25 28 30 29 28 29 29 29 30 33 36 37 35 34 31 29 28 27 27 26 25 24 22 20 21 24 23 21 19 16 14 14 13 13 13 14 14 14 14 14 14
21 25 26 24 23 22 22 22 22 23 23 22 22 23 23 24 25 24 24 25 24 23 25 29 31 32 32 31 31 32 32 32 34 37 37 35 33 31 30 30 29 28 27 26 24 22 22 23 21 19 18 14 13 13 12 12 13 13 14 14 14 14 14
20 23 24 24 21 18 18 19 21 22 22 22 23 23 24 24 25 24 25 25 25 24 25 28 30 32 34 34 34 35 35 34 34 36 37 35 33 32 32 31 31 30 30 28 24 22 22 21 20 19 16 12 12 12 12 12 13 13 13 14 15 15 16
20 22 24 23 20 17 17 18 19 20 21 22 23 24 24 25 25 25 26 26 26 26 27 28 29 31 33 36 37 37 38 39 37 36 35 34 32 32 32 32 33 33 31 27 23 22 20 18 18 18 14 11 12 12 12 13 14 14 14 14 15 16 17
24 25 25 24 21 20 19 19 20 20 20 21 21 22 23 23 24 25 26 27 27 27 28 28 29 30 32 34 37 39 43 45 40 33 30 31 31 32 33 34 35 34 31 27 25 22 18 17 18 16 12 12 12 12 12 14 15 16 17 17 18 19 19
27 26 25 25 22 20 20 20 21 21 20 19 18 19 20 20 22 24 25 27 27 28 29 28 29 30 29 32 38 44 48 47 40 30 28 32 33 33 35 36 35 34 31 28 26 22 18 19 18 15 13 13 12 12 14 15 17 19 20 21 21 22 23
27 27 26 26 22 20 20 20 20 18 17 16 15 15 16 16 18 20 23 26 28 28 29 29 29 29 30 37 45 47 46 46 41 33 29 33 36 35 35 36 35 33 31 28 24 19 17 18 17 14 13 13 13 14 16 17 19 21 22 24 24 25 26
26 27 28 26 23 21 21 20 18 16 13 11 10 10 11 12 14 17 20 23 25 27 28 29 29 31 36 43 46 44 42 42 39 33 31 31 33 33 34 34 33 32 31 27 20 16 17 17 15 13 13 13 14 16 18 20 22 23 25 26 27 28 30
26 29 29 26 22 22 22 22 19 14 9 8 8 9 10 11 13 15 17 18 19 21 23 24 27 32 37 39 38 40 43 40 33 31 31 29 30 33 33 31 30 30 31 26 18 16 17 16 14 13 13 14 16 18 20 22 24 26 28 29 30 31 33
28 29 27 23 21 20 21 22 19 13 9 8 9 12 13 14 15 15 15 16 16 17 19 21 25 29 32 31 31 36 41 37 29 28 28 26 31 37 34 29 28 28 26 21 17 17 17 16 14 14 14 16 18 19 21 23 25 27 30 32 33 34 35
29 28 24 21 20 19 19 21 20 16 13 12 13 15 15 16 18 17 17 17 18 19 21 24 27 28 29 29 30 32 35 32 28 26 23 24 33 36 30 27 27 25 22 18 17 17 16 15 15 15 16 18 20 22 23 24 25 27 30 31 33 34 36
29 26 23 21 20 19 20 21 20 16 14 14 16 17 18 19 20 21 21 21 21 22 24 26 29 30 30 30 31 31 31 29 26 24 21 22 28 30 27 25 24 23 20 18 17 16 16 16 17 17 18 20 22 24 26 25 26 27 28 30 31 34 36
27 23 21 19 20 20 19 19 17 15 15 18 20 21 21 21 22 22 23 24 25 26 28 29 30 32 31 31 32 32 31 28 26 24 22 21 23 26 25 23 23 24 21 17 15 16 17 18 18 18 20 22 24 27 28 27 27 28 29 30 32 34 37
23 21 20 19 20 20 19 18 18 19 20 21 22 22 21 20 21 21 22 24 25 27 28 29 31 31 31 31 30 29 28 26 24 24 23 23 24 24 22 22 23 24 20 16 15 17 19 19 20 21 22 24 26 28 29 29 29 30 31 32 33 35 37
22 21 21 20 21 21 21 20 21 21 21 21 21 20 20 20 20 20 20 20 21 22 25 26 28 29 29 28 25 23 25 24 22 24 25 24 23 22 21 22 22 20 17 15 16 18 20 21 22 23 24 26 27 28 29 29 30 31 33 33 34 36 37
25 25 24 23 23 21 19 19 20 21 20 19 18 18 17 17 16 17 17 18 19 20 22 23 24 24 24 23 21 21 24 24 23 26 26 22 21 22 22 21 19 18 16 16 18 19 22 24 25 24 25 26 27 28 29 29 30 31 33 34 35 37 37
28 27 26 25 23 21 19 18 17 17 16 15 15 16 15 15 14 15 17 18 20 21 22 22 23 23 23 24 22 21 22 23 23 24 22 22 23 23 22 19 17 16 16 17 19 22 24 24 24 23 22 24 26 27 28 29 29 30 32 35 36 37 37
27 26 26 26 24 22 21 19 16 13 13 13 14 16 16 16 16 15 16 18 20 22 23 24 25 26 27 27 24 21 21 22 21 21 22 24 24 22 19 16 16 15 15 17 20 22 22 20 20 19 19 21 23 24 26 27 29 30 32 34 36 36 37
26 25 26 25 23 21 19 17 16 14 14 15 16 17 18 19 18 18 19 19 20 22 23 25 26 27 27 27 24 21 21 22 22 24 24 23 22 20 17 17 15 14 15 18 19 18 16 15 16 17 18 19 21 23 25 26 27 28 30 31 33 34 35
24 24 23 21 19 17 15 15 15 15 16 17 18 19 19 19 19 20 22 22 21 22 22 23 25 25 25 25 22 19 20 21 24 27 24 22 20 19 17 15 13 12 14 15 15 14 13 14 16 17 18 20 21 24 25 26 27 27 28 29 30 32 33
21 19 18 16 14 14 13 13 14 15 17 18 18 19 19 20 21 23 24 24 23 23 22 23 23 23 23 23 20 20 21 24 28 28 24 22 21 18 15 12 10 11 13 14 14 14 14 15 17 19 20 22 23 25 26 27 27 28 29 29 30 30 31
20 18 17 15 13 13 12 12 12 14 16 17 18 19 21 22 23 24 25 25 24 23 22 22 22 21 21 21 20 22 25 27 30 28 24 22 21 18 15 12 11 14 15 15 14 14 15 17 20 22 23 25 25 26 26 27 27 28 29 30 31 31 30
24 22 20 17 14 13 13 15 16 17 19 21 23 24 24 24 24 25 24 24 23 22 21 20 20 19 19 19 21 27 29 29 29 27 25 23 22 21 17 14 15 17 16 15 15 16 18 19 21 24 25 26 26 26 27 27 28 29 29 30 31 31 30
26 24 21 18 15 15 16 18 20 22 24 27 28 28 26 25 25 24 23 22 21 20 19 18 17 17 17 18 25 30 29 27 28 27 26 25 23 21 18 17 17 16 15 16 18 19 20 21 23 24 25 26 27 28 29 29 29 30 30 31 32 31 30
24 24 23 22 23 21 18 18 21 24 26 27 27 28 27 25 24 23 22 21 21 19 18 17 16 15 16 21 28 30 28 28 28 27 26 24 21 19 18 17 16 16 17 20 21 21 22 23 24 25 25 27 28 29 30 31 32 32 32 32 32 31 30
29 29 28 27 28 29 26 23 23 24 24 23 24 25 25 24 23 22 22 21 20 19 17 15 15 16 20 25 29 29 28 29 27 25 24 21 18 17 17 16 16 19 21 23 23 23 24 24 25 25 26 28 29 31 32 33 34 35 34 33 32 31 30
30 32 31 31 32 32 28 25 24 23 22 21 22 23 23 22 21 21 21 20 19 18 16 14 15 20 24 27 29 30 30 28 25 24 23 21 19 18 17 17 19 22 23 24 24 24 25 25 26 26 27 29 30 32 33 35 36 35 35 33 32 31 29
29 30 31 32 30 26 22 21 22 23 22 21 22 21 20 20 19 19 19 18 17 17 15 14 17 22 26 28 30 31 30 27 24 22 22 22 22 21 20 20 21 21 22 23 24 25 26 26 27 28 29 30 31 32 33 35 36 36 35 33 32 30 29
27 27 27 26 24 22 22 23 24 23 21 21 20 19 18 17 16 15 15 15 15 15 14 13 16 22 28 31 33 31 28 25 23 23 22 23 24 22 22 22 22 21 22 24 25 26 26 27 28 29 30 31 32 33 34 35 36 36 34 33 31 30 28

ECMWFFLT1_700_spd_033.txt.gz
Wind_Speed
23 23 21 21 23 25 26 26 26 26 25 24 23 21 21 22 21 21 21 20 20 20 20 20 21 22 22 22 22 21 21 19 18 17 16 15 14 14 13 12 11 11 10 10 10 12 13 14 15 17 18 19 20 19 19 17 16 14 13 12 11 11 11
22 24 23 21 22 25 26 26 26 27 27 26 24 23 23 22 22 21 20 20 20 20 20 20 20 20 21 22 23 22 21 20 19 19 18 17 17 16 15 14 14 13 12 12 12 13 14 15 15 17 19 20 21 20 19 18 16 15 13 12 11 11 11
21 22 22 20 20 22 25 27 27 27 27 27 26 25 23 22 20 19 19 20 21 21 21 21 20 20 21 22 23 22 22 21 21 20 20 20 19 18 18 17 16 15 14 13 13 14 15 16 16 18 20 21 21 21 19 17 16 15 13 12 11 11 11
23 22 20 19 18 19 22 26 28 28 28 27 27 26 23 21 20 19 19 20 22 22 22 21 20 21 21 22 23 23 23 23 23 23 23 23 22 22 21 20 19 17 16 15 15 16 16 17 18 19 20 21 22 22 19 17 16 15 14 12 11 11 12
25 23 21 20 20 21 22 25 28 28 28 27 27 27 24 22 22 22 20 19 21 23 22 21 21 22 22 22 23 23 25 25 25 26 26 25 25 25 24 22 20 19 18 17 17 17 18 19 19 19 19 20 23 22 20 17 16 15 14 13 12 12 12
27 26 24 23 23 23 24 26 27 27 27 27 26 25 24 24 25 24 22 20 21 22 23 23 24 24 23 23 23 24 26 28 28 28 28 28 28 27 26 23 21 20 20 19 19 19 20 20 20 19 18 20 23 23 20 17 15 15 14 13 13 12 12
22 25 26 26 25 25 25 26 28 27 27 26 25 24 24 25 25 24 24 23 21 22 23 23 24 24 24 24 24 24 26 28 29 30 31 30 30 29 27 25 23 22 21 20 19 20 21 21 21 20 19 21 24 23 20 18 16 15 14 14 14 13 13
16 20 25 26 26 26 27 28 29 28 28 27 26 25 26 26 25 24 24 23 22 23 23 23 23 23 22 23 23 24 26 27 30 32 33 33 32 30 28 26 24 23 22 21 20 19 21 22 22 20 20 22 24 23 20 18 17 16 15 14 14 14 14
16 19 23 24 24 25 27 30 29 28 28 28 28 27 26 26 24 24 23 22 23 24 24 24 23 22 22 23 23 25 26 27 31 35 35 34 33 31 29 26 24 24 23 22 20 20 23 24 23 22 21 23 24 22 19 18 18 17 15 15 15 14 14
19 20 21 22 23 25 28 30 29 28 28 29 28 26 26 26 25 25 23 23 24 23 23 24 25 25 25 26 27 28 29 31 33 35 36 37 37 34 31 27 26 26 25 22 22 24 26 26 25 23 22 23 23 22 19 18 18 17 15 15 15 14 14
21 21 20 22 24 28 30 28 26 27 29 28 26 25 25 25 24 24 23 23 23 22 22 24 25 26 26 28 31 32 33 34 33 31 34 38 39 36 32 30 28 28 26 24 24 28 28 27 26 24 23 23 22 21 21 20 18 16 15 14 14 14 14
21 20 21 22 25 28 28 24 22 24 27 27 26 25 24 24 23 23 23 23 23 22 24 24 24 25 26 30 35 35 35 36 35 33 33 37 39 38 33 31 30 30 28 27 29 31 29 27 26 25 24 23 22 23 23 21 18 15 14 14 14 14 15
21 21 22 22 24 27 26 22 19 20 24 27 25 24 24 24 23 23 23 22 23 23 24 24 24 25 27 32 35 35 37 40 39 36 34 36 38 36 33 33 33 33 33 34 35 34 31 29 27 25 23 22 22 23 23 21 17 14 13 14 15 16 17
22 23 22 21 22 25 24 21 19 20 22 25 25 23 23 23 22 22 22 22 23 24 25 25 25 26 29 32 33 33 36 39 38 37 36 36 37 36 34 34 36 37 38 38 37 34 33 31 28 24 23 23 22 22 21 18 15 13 13 14 15 17 18
22 24 23 22 23 24 24 21 20 20 22 24 24 23 22 22 22 23 24 25 25 25 26 26 27 28 31 33 33 34 35 35 37 40 39 35 36 38 38 35 34 37 39 37 34 33 32 32 29 26 26 25 23 22 20 16 13 12 14 15 16 18 19
23 24 24 24 23 24 25 22 20 20 22 23 24 23 23 23 24 25 25 26 26 26 27 28 29 31 32 33 33 33 32 31 36 43 41 35 36 38 39 37 34 35 36 33 31 29 30 32 32 28 25 24 23 22 19 14 12 13 15 17 18 20 21
23 23 24 26 25 26 26 23 21 22 23 24 24 24 23 23 23 23 23 24 25 27 28 29 31 32 33 34 33 32 30 29 33 36 33 31 34 34 34 35 35 35 35 32 30 28 29 32 32 27 23 22 22 21 17 14 13 14 17 19 21 22 24
24 23 25 26 28 30 28 24 23 24 25 25 24 23 21 20 20 19 20 22 24 25 27 28 30 31 33 34 33 31 30 31 31 29 24 24 26 26 28 33 36 36 35 33 31 29 30 32 31 26 23 23 22 19 16 14 14 16 19 21 23 24 26
25 24 26 26 29 31 29 25 24 25 26 25 23 21 19 19 18 17 18 20 21 22 24 25 27 28 29 30 29 29 28 29 29 25 21 21 24 25 27 31 35 36 35 34 32 31 31 31 28 23 22 22 21 18 16 16 16 19 21 22 24 26 28
26 25 27 28 30 31 29 26 26 26 27 25 23 21 19 17 17 16 17 19 20 21 22 24 25 26 27 27 27 27 28 28 26 22 21 23 25 26 27 29 32 34 34 35 35 33 32 31 26 22 21 21 20 18 17 17 19 21 22 24 26 28 30
27 26 26 29 32 31 29 28 28 28 27 25 21 18 17 17 17 17 19 20 21 23 24 25 26 27 28 28 28 29 29 28 25 24 25 27 26 26 27 27 30 33 35 37 37 34 32 30 26 23 21 21 19 17 18 19 20 23 25 27 29 30 33
30 29 27 29 32 31 28 28 28 27 24 20 17 17 18 18 18 19 20 21 23 24 25 25 26 27 28 29 30 30 29 29 28 26 25 26 25 25 26 27 30 33 35 36 37 35 32 29 26 23 21 20 18 18 20 20 22 25 28 29 30 32 33
31 31 30 29 30 30 28 28 29 28 24 22 21 21 21 20 20 20 22 23 24 25 25 25 25 26 26 27 28 30 30 31 29 24 23 26 26 25 25 26 29 32 33 34 35 33 31 28 25 22 21 19 19 20 21 21 23 27 28 29 31 32 33
30 29 28 29 31 31 31 31 32 32 29 27 25 23 22 21 21 22 23 24 24 24 24 24 24 25 25 25 27 29 30 31 28 24 26 29 26 23 24 26 29 31 31 32 33 31 29 27 24 22 20 20 20 22 23 23 25 27 29 30 31 32 33
29 27 27 31 32 32 33 33 34 34 32 29 26 24 23 21 22 23 23 23 22 22 21 20 21 22 24 26 28 29 30 31 29 26 27 28 27 24 24 25 27 28 29 31 32 30 28 27 24 21 20 21 22 23 25 25 25 27 28 29 29 31 32
26 27 30 33 32 32 33 32 32 33 32 30 27 25 23 22 23 23 22 21 20 19 19 19 19 20 22 25 28 29 30 31 29 26 26 28 27 24 23 24 26 28 29 30 30 29 27 26 24 22 22 23 24 24 25 25 24 25 25 26 27 29 31
25 29 32 32 31 31 32 31 31 32 31 29 27 25 24 24 23 22 21 20 19 19 19 19 19 20 21 24 26 29 30 31 30 27 25 26 25 22 23 25 28 29 28 28 29 29 27 25 24 24 23 23 24 24 23 23 22 21 21 23 25 27 29
30 32 32 32 31 31 31 31 31 31 30 28 26 25 25 24 23 22 20 19 18 18 18 19 19 19 21 23 25 27 29 30 29 26 24 24 23 22 24 27 31 30 27 28 29 29 27 25 23 23 22 22 22 21 20 19 19 19 20 22 24 26 28
31 31 31 30 30 30 31 32 31 31 29 27 25 24 24 24 22 21 19 17 17 17 18 19 20 21 22 23 24 26 27 28 27 24 22 23 22 22 26 32 33 31 28 29 30 27 24 22 21 21 20 20 19 17 17 17 18 19 21 22 24 26 27
31 31 31 31 32 33 33 31 29 27 25 23 22 22 20 19 18 17 16 15 16 18 20 21 22 24 25 25 25 25 26 27 25 22 23 24 22 23 30 34 33 30 29 29 27 23 21 20 20 19 17 16 16 16 17 17 18 21 23 24 25 26 27
32 33 33 33 32 30 28 26 23 22 20 19 19 18 18 17 16 16 16 17 18 20 22 24 25 26 26 25 25 25 25 26 24 21 23 24 24 28 32 33 31 30 29 26 23 20 19 19 18 16 15 16 17 17 16 18 20 22 24 25 26 27 28
34 32 30 29 27 26 26 26 25 24 23 22 21 22 22 21 19 19 20 20 20 22 24 25 26 27 26 25 25 24 25 26 22 22 25 25 26 30 30 28 28 28 25 23 21 19 18 17 16 16 17 17 17 17 18 20 23 24 25 26 27 28 29
30 28 26 24 23 23 25 27 27 28 30 32 31 28 24 22 22 22 22 22 23 24 25 26 27 27 26 25 24 24 25 24 22 24 27 27 28 30 27 25 27 27 24 21 20 19 19 19 18 18 17 17 18 19 21 23 24 24 26 27 28 29 31
22 21 20 21 23 26 29 31 32 33 34 33 31 28 25 26 27 27 28 28 28 26 26 26 26 25 25 24 24 24 25 23 21 24 27 29 30 29 26 25 25 23 20 19 20 21 21 20 18 17 18 19 21 23 23 24 25 26 27 28 30 32 32
21 23 25 27 29 31 32 32 30 29 28 26 27 28 29 29 28 27 28 29 27 26 25 24 24 23 23 23 22 23 22 21 22 25 28 30 30 28 26 26 25 23 21 21 22 22 21 21 21 21 22 22 23 24 24 25 26 27 28 30 31 33 34
24 25 26 27 26 26 26 26 25 24 24 25 25 25 25 24 23 23 24 24 23 22 21 20 20 21 21 20 20 20 19 21 25 27 28 29 29 28 27 28 26 24 22 22 22 24 26 27 26 24 23 23 24 25 26 26 27 28 29 31 33 34 36
21 22 23 23 23 22 22 22 22 22 22 22 21 21 20 20 21 21 21 21 20 19 18 18 18 19 19 18 17 17 19 23 27 28 28 30 30 29 27 26 24 22 21 23 25 28 29 29 27 24 23 25 26 26 27 27 28 30 31 33 35 36 37
18 19 20 20 19 19 18 18 19 19 20 20 19 19 19 20 20 20 19 18 18 17 17 17 18 17 17 17 18 19 22 25 27 28 28 28 27 25 23 22 22 23 25 27 29 29 29 28 26 24 25 26 26 27 27 29 30 32 33 35 37 38 38

ECMWFFLT1_700_spd_036.txt.gz
Wind_Speed
14 14 16 19 23 27 28 27 27 26 27 27 26 24 24 25 25 24 23 24 25 26 26 25 25 25 25 24 24 24 24 24 23 22 22 22 23 22 20 19 17 15 13 12 11 11 11 11 11 11 12 14 15 17 18 19 19 18 17 16 15 14 13
17 16 18 18 19 23 26 27 28 28 28 28 27 25 25 25 24 23 22 22 23 24 25 25 25 25 25 25 25 25 25 24 24 23 23 23 24 23 22 21 19 17 15 15 14 14 13 13 12 12 13 14 15 16 18 19 19 18 17 16 15 14 13
19 20 21 19 18 19 20 23 26 27 28 29 28 27 26 26 23 21 21 22 22 24 25 24 24 24 25 25 25 26 26 25 25 24 24 24 24 24 24 22 20 19 18 17 16 16 16 15 14 14 14 15 15 16 18 20 19 18 17 16 16 15 14
21 22 23 20 18 17 17 19 21 24 27 28 29 29 27 25 22 21 22 22 23 24 24 24 23 23 24 25 26 26 26 26 26 26 26 26 26 26 26 24 23 22 21 20 19 19 18 17 16 15 15 15 16 17 19 20 20 19 17 16 16 16 15
23 23 23 21 20 20 20 21 21 22 25 27 29 30 29 26 24 23 23 23 24 23 23 24 24 24 25 25 26 27 27 28 28 28 29 29 29 28 28 27 26 25 24 23 22 21 20 18 17 17 16 16 16 17 19 21 21 19 18 17 16 16 15
23 24 23 22 22 23 23 24 24 24 25 26 28 29 29 28 26 26 25 24 24 23 24 25 26 26 25 25 25 26 27 29 29 30 31 32 31 30 30 30 29 28 27 26 25 23 22 20 18 17 17 17 17 17 19 22 22 20 18 17 17 16 16
23 24 23 23 23 23 25 25 25 26 26 25 27 28 30 30 28 27 26 25 24 24 24 25 25 26 25 25 25 25 27 28 30 31 33 33 33 33 33 33 32 31 29 28 27 25 24 22 20 19 19 20 19 18 20 22 22 20 19 18 17 17 16
21 20 19 21 21 21 24 27 26 27 27 26 27 29 30 32 31 29 28 26 25 25 25 24 25 25 25 25 25 26 27 28 30 32 33 34 35 35 36 36 34 33 31 29 28 27 26 25 23 22 23 23 22 21 21 22 22 21 19 18 18 17 15
20 18 17 18 19 17 20 26 29 28 28 28 28 29 30 32 33 31 29 27 25 26 25 24 24 24 25 25 25 26 27 29 30 31 32 33 34 36 38 38 36 35 32 31 31 30 28 28 28 27 26 25 24 22 21 22 22 21 19 18 18 17 15
21 19 18 18 20 17 17 24 31 31 30 30 30 31 30 30 32 31 29 27 26 26 24 24 25 25 25 26 26 26 27 28 30 31 32 32 33 36 39 40 38 36 34 32 32 32 32 32 33 32 30 28 25 23 22 22 23 22 20 19 18 16 13
23 21 18 18 21 19 17 23 30 32 31 30 31 32 30 30 31 31 29 28 27 26 24 25 26 27 27 27 27 27 27 28 30 31 32 31 31 33 37 40 39 37 37 37 37 38 37 36 37 36 33 30 27 24 23 22 23 24 22 20 18 14 12
24 22 22 21 21 20 20 22 28 30 29 29 31 31 30 30 30 30 29 28 27 25 24 26 28 28 28 28 27 27 28 30 31 31 30 31 32 32 35 39 37 34 34 36 40 44 42 37 36 38 36 32 29 26 24 22 23 24 22 20 17 15 12
27 27 26 24 22 21 22 23 26 28 27 27 29 30 29 29 29 29 28 27 26 26 26 27 29 29 29 28 27 28 30 31 31 31 31 32 33 34 36 38 38 35 32 32 36 43 44 38 35 38 39 35 30 27 24 22 22 23 22 19 18 16 13
29 31 30 26 23 21 22 23 26 27 26 26 27 28 28 28 27 26 25 24 25 26 27 28 29 29 28 27 27 28 28 30 31 32 32 33 34 36 36 36 35 35 34 34 35 39 41 38 35 37 38 36 32 27 25 24 24 24 22 20 18 16 13
25 29 30 27 23 22 21 23 25 26 26 26 26 27 27 27 26 26 25 25 26 27 27 28 29 29 28 27 28 28 26 28 30 32 33 35 36 37 38 34 32 32 34 36 37 38 39 38 36 36 37 35 32 28 27 26 24 22 22 20 19 16 14
24 26 28 27 24 23 23 23 24 26 26 25 26 27 28 28 28 28 28 28 28 28 28 29 29 28 28 28 29 29 27 28 30 30 32 34 35 35 36 33 30 30 32 35 37 37 39 39 36 35 37 36 32 30 29 26 22 20 21 20 18 16 15
26 25 26 28 26 25 25 23 24 27 27 26 26 28 29 30 30 30 30 29 29 28 29 30 30 29 30 31 31 30 29 31 31 30 29 30 31 31 32 30 28 26 27 31 35 36 38 39 37 36 38 37 33 32 30 25 20 20 21 20 18 16 17
28 25 25 27 27 26 25 24 25 28 29 28 29 30 30 31 32 31 30 29 28 29 30 31 30 30 30 31 31 31 31 32 32 30 29 29 30 30 29 30 30 28 26 28 31 34 36 38 37 37 38 38 35 32 29 25 22 23 22 20 19 18 19
31 27 26 26 28 27 26 27 29 31 31 30 30 31 31 31 31 30 30 29 29 29 30 29 29 29 29 29 30 30 31 32 31 30 29 30 30 28 28 30 31 30 28 26 28 31 34 36 37 36 36 38 37 33 29 26 25 25 22 20 19 19 21
32 30 27 25 28 29 29 30 32 32 31 31 32 32 32 31 31 31 30 29 29 29 28 27 26 25 25 25 25 26 27 28 28 28 27 28 29 28 28 30 30 29 28 28 29 31 33 36 38 36 34 36 37 34 29 27 27 25 21 19 19 20 23
32 30 27 25 28 31 32 33 34 34 34 34 35 34 33 33 32 31 30 30 29 28 25 24 22 21 20 21 22 23 24 25 26 26 26 27 28 29 28 29 29 29 28 29 31 32 34 37 38 35 32 36 37 33 29 27 27 25 21 19 20 22 25
33 31 29 27 28 31 33 32 32 36 37 37 36 35 34 33 32 31 31 31 28 25 22 20 19 18 19 20 21 22 23 24 26 26 27 28 29 30 29 29 29 29 29 29 30 33 35 37 38 34 32 36 37 32 27 28 28 25 21 20 22 25 27
36 33 31 29 28 31 33 30 30 37 40 38 36 34 33 33 33 33 33 30 26 22 19 18 18 19 20 20 21 21 22 23 25 26 28 29 30 30 30 30 30 31 30 28 30 34 35 35 37 33 32 36 36 30 27 28 28 25 22 21 24 27 28
36 34 33 31 29 31 34 31 30 38 42 39 36 34 33 33 34 33 31 27 23 20 18 18 19 20 21 21 22 21 20 20 21 24 27 28 29 30 30 30 31 31 31 28 28 33 35 35 35 30 30 36 35 29 28 28 27 26 23 23 26 28 27
34 34 35 34 31 30 33 32 33 39 43 39 36 34 33 34 34 31 27 23 20 19 19 20 21 21 22 22 22 20 19 18 19 22 25 26 27 28 28 30 31 31 30 27 27 31 35 36 32 27 31 37 34 29 29 28 27 26 25 25 28 28 26
35 36 36 36 34 31 31 32 36 41 42 39 36 35 34 34 32 29 25 22 21 21 21 21 22 21 21 21 21 20 19 19 20 22 24 26 27 27 29 31 31 31 31 28 27 31 35 35 30 28 34 38 34 32 33 31 28 28 26 26 27 25 24
36 37 37 37 36 33 31 35 39 41 41 40 38 36 35 35 32 29 26 25 24 24 23 22 21 21 21 20 20 19 18 18 19 22 24 26 28 29 30 31 32 32 31 29 29 32 34 34 31 31 35 37 35 35 34 30 28 28 26 25 24 23 23
36 37 37 36 33 31 33 39 42 41 41 40 38 37 36 34 32 29 28 29 28 27 25 24 22 21 20 19 18 17 18 19 21 23 25 27 28 29 29 30 31 32 32 30 31 33 34 33 31 32 35 38 37 34 31 29 28 28 26 23 22 22 21
33 33 32 31 30 31 37 42 43 41 41 40 39 37 35 32 31 31 32 32 30 28 26 24 23 21 19 18 19 19 20 21 23 24 26 27 28 28 29 30 30 30 31 31 31 33 33 31 31 33 37 39 36 32 30 30 30 29 25 22 21 20 20
27 27 27 28 31 35 38 40 41 41 40 38 36 33 29 28 30 32 33 33 32 30 28 25 23 22 21 22 23 23 23 23 24 25 27 27 28 29 30 29 28 28 29 31 31 32 32 31 32 34 37 36 33 30 30 31 29 25 22 21 21 21 21
23 24 27 31 34 36 35 35 35 35 34 31 29 27 27 30 32 32 33 33 31 28 26 24 24 24 24 25 26 26 25 25 26 27 28 28 29 30 30 28 27 28 29 30 31 32 33 33 33 34 34 32 30 30 31 30 25 21 21 23 24 24 24
27 29 31 33 34 33 31 29 27 27 27 27 29 31 33 36 36 35 33 31 27 25 24 24 25 26 27 27 28 27 27 27 27 28 29 28 29 30 30 28 27 27 28 30 32 34 35 34 33 32 31 30 29 29 28 24 21 22 26 28 28 26 24
31 32 32 31 31 30 29 27 27 28 30 32 35 36 36 35 34 32 30 27 25 26 27 27 28 29 29 29 28 26 26 26 27 27 27 27 28 30 30 28 28 27 28 31 34 36 35 32 30 28 28 28 27 25 23 22 25 30 33 32 28 24 22
32 32 32 31 31 30 30 29 28 29 29 29 30 30 30 29 28 27 27 26 27 27 27 27 28 29 30 30 27 25 26 26 26 26 25 25 28 29 29 29 29 28 29 32 35 35 33 29 27 27 27 25 25 24 25 28 32 33 32 29 25 23 24
31 30 29 27 25 24 22 22 21 22 22 23 23 23 24 25 26 26 26 26 26 25 26 27 29 30 29 28 26 25 26 26 25 24 24 25 27 27 27 28 28 27 29 33 35 32 29 26 26 28 27 25 24 25 27 29 31 29 26 24 24 25 26
25 24 22 20 19 18 17 17 18 19 20 20 21 21 22 23 24 24 23 23 23 24 26 27 28 27 26 25 25 25 25 24 23 23 23 24 26 26 25 28 29 28 30 33 33 30 26 25 27 28 26 24 24 25 26 28 29 27 25 24 25 26 27
23 21 20 19 18 18 18 18 19 19 19 19 20 20 20 21 21 20 20 22 23 25 26 25 24 24 24 24 24 24 23 22 22 22 21 22 24 24 24 26 27 28 31 32 30 27 26 26 26 26 24 24 25 26 28 29 29 26 25 25 26 27 28
20 19 18 17 16 16 16 16 16 17 18 18 19 19 20 20 20 20 21 23 23 23 22 21 22 23 23 23 23 23 22 21 21 20 18 19 22 22 22 24 24 24 25 25 23 21 22 23 23 23 24 25 27 28 29 30 28 26 26 27 27 28 30